Regional Weather Roundup
Issued by NWS Grand Forks, ND

Home | Current Version | Previous Version | Text Only | Print | Product List | Glossary On
Versions: 1 2 3 4 5 6 7 8 9 10 11 12 13 14 15 16 17 18 19 20 21 22 23 24 25 26 27 28 29 30 31 32 33 34 35 36 37 38 39 40 41 42 43 44 45 46 47 48 49 50
000
ASUS43 KFGF 060610
RWRFGF
PRAIRIE TO PINES  WEATHER ROUNDUP
NATIONAL WEATHER SERVICE EASTERN NORTH DAKOTA/GRAND FORKS ND
1200 AM CST TUE DEC 06 2016

 **SATELLITE DATA USED TO AUGMENT SKY COVER AT AUTOMATED STATIONS**
 *****  WEATHER ACROSS EASTERN NORTH DAKOTA  *****

CITY           SKY/WX    TMP DP  RH WIND       PRES   REMARKS
GRAND FORKS    FOG       30  27  88 N17       29.39F VSB 1/2 WCI  18
6HR MIN TEMP:  30; 6HR MAX TEMP:  31; 6HR PCP:  0.21;

GRAND FRKS AFB SNOW      29  28  97 NE17      29.40F VSB 1/2 WCI  17
GRAND FRKS NWS   N/A     28 N/A N/A N12         N/A  WCI  18
DEVILS LAKE    FLURRIES  27  25  92 N24G30    29.47F WCI  12
6HR MIN TEMP:  26; 6HR MAX TEMP:  27; 6HR PCP:  0.02;

FARGO          CLOUDY    28  25  88 SW25G32   29.41R WCI  13
WAHPETON ARPT  CLOUDY    25  19  80 W29G36    29.54R WCI   8
$$

 ***** WEATHER ACROSS CENTRAL AND WESTERN NORTH DAKOTA  *****

CITY           SKY/WX    TMP DP  RH WIND       PRES   REMARKS
BISMARCK       LGT SNOW  14  12  92 NW33G46   29.69S VSB 1   WCI  -8
6HR MIN TEMP:  14; 6HR MAX TEMP:  17; 6HR PCP:  1.06;

MINOT          SNOW      19  17  92 NW31      29.66R VSB 1/2 WCI   0
6HR MIN TEMP:  19; 6HR MAX TEMP:  23; 6HR PCP:  0.02;

JAMESTOWN      LGT SNOW  20  18  92 W18G29    29.48F FOG     WCI   5
6HR MIN TEMP:  20; 6HR MAX TEMP:  27; 6HR PCP:  0.03;

MINOT AFB      SNOW      22  20  91 NW22G29   29.66R VSB 1/4 WCI   7
GARRISON         N/A     14  12  92 NW41G49   29.66R WCI -10
WILLISTON      LGT SNOW  10   5  80 NW25G32   29.93R WCI -11
6HR MIN TEMP:  10; 6HR MAX TEMP:  12; 6HR PCP:  0.03;

DICKINSON      MIX PCPN   5   1  83 NW31G41   29.81R VSB 3/4 WCI -19
6HR MIN TEMP:   5; 6HR MAX TEMP:   9; 6HR PCP:  0.01;

HETTINGER      CLOUDY     6   0  76 NW35      29.84S HAZE    WCI -19
6HR MIN TEMP:   6; 6HR MAX TEMP:  11; 6HR PCP: TRACE;

$$

 *****  OTHER AIRPORT OBSERVATIONS IN OUR AREA  *****

CITY           SKY/WX    TMP DP  RH WIND       PRES   REMARKS
WALHALLA       LGT SNOW  28  28 100 N21G30    29.53F WCI  15
GRAFTON AIRPOR FOG       30  30 100 N18G24    29.45F VSB 1/4 WCI  18
VALLEY CITY AR FLURRIES  23  23 100 W20G26    29.46F WCI   8
CANDO          LGT SNOW  27  27 100 N21G30    29.55S VSB 1   WCI  13
CAVALIER APRT  LGT SNOW  30  28  93 N23G33    29.49F WCI  17
GWINNER          N/A     21  18  86 W26G36    29.55S WCI   4
SHEYENNE NWR     N/A     22  17  79 W21       29.95S WCI   6
ROLLA          LGT SNOW  25  25 100 N25       29.57F WCI   9
 ***** THE ABOVE OBSERVATIONS ARE NON NWS ARE NOT QUALITY
       CONTROLLED AND MAY MIS-REPORT RAIN FOR SNOW...
$$

  *****  WEATHER ACROSS NORTHERN MINNESOTA  *****

CITY           SKY/WX    TMP DP  RH WIND       PRES   REMARKS
FLAG ISLAND    LGT SNOW  30  28  93 E15G22    29.50F WCI  19
WARROAD        SNOW      30  27  86 E18G29    29.47F VSB 1/4 WCI  18
ROSEAU         LGT SNOW  30  27  86 NE22G28   29.44F WCI  17
HALLOCK        LGT SNOW  30  30 100 NE14      29.45F VSB 3/4 WCI  20
THF RVR FALLS  LGT SNOW  29  28  96 NE16      29.36F VSB 1   WCI  17
6HR MIN TEMP:  28; 6HR MAX TEMP:  29; 6HR PCP:  0.02;

BAUDETTE       LGT SNOW  30  28  92 E15G26    29.45F FOG     WCI  19
6HR MIN TEMP:  29; 6HR MAX TEMP:  30; 6HR PCP: TRACE;

WASKISH        MIX PCPN  34  32  93 E12       29.42F
CROOKSTON      LGT SNOW  30  30 100 E13       29.36F WCI  20
$$
  *****  WEATHER ACROSS CENTRAL AND WEST MINNESOTA  *****

CITY           SKY/WX    TMP DP  RH WIND       PRES   REMARKS
FOSSTON        MIX PCPN  30  30 100 SE8       29.36F WCI  23
BEMIDJI        DRIZZLE   33  32  96 SE13      29.38F WCI  24
PARK RAPIDS    CLOUDY    33  28  81 SW23G35   29.43R WCI  21
6HR MIN TEMP:  32; 6HR MAX TEMP:  36; 6HR PCP:  0.01;

ELBOW LAKE     CLOUDY    24  20  84 SW26G36   29.58R WCI   8
WADENA         CLOUDY    28  25  86 SW21G29   29.50R WCI  15
DETROIT LAKES  CLOUDY    30  30 100 SW20G29   29.43R WCI  18
MOORHEAD       LGT RAIN  27  25  93 W21G28    29.43R WCI  13
FERGUS FALLS   CLOUDY    25  21  86 W29G36    29.58R WCI   8
MORRIS MN      CLOUDY    25  19  80 W26G35    29.61R WCI   9
STAPLES        CLOUDY    30  27  86 SW18G28   29.52R WCI  18
$$
  *****  WEATHER ELSEWHERE ACROSS MINNESOTA  *****

CITY           SKY/WX    TMP DP  RH WIND       PRES   REMARKS
DULUTH         CLOUDY    35  32  88 SE15      29.57F
6HR MIN TEMP:  33; 6HR MAX TEMP:  35; 6HR PCP:  0.03;

INTRNTL FALLS  MIX PCPN  31  29  92 E15       29.49F FOG     WCI  20
6HR MIN TEMP:  29; 6HR MAX TEMP:  31; 6HR PCP:  0.24;

ELY            FLURRIES  34  32  93 SE8       29.60F
CLOQUET        CLOUDY    34  30  86 SE8       29.57F
WHEATON        PTCLDY    23  18  80 W20G35    29.61S WCI   8
BRAINERD       CLOUDY    34  29  82 S20G31    29.52R WCI  23
6HR MIN TEMP:  34; 6HR MAX TEMP:  37;

HIBBING        CLOUDY    32  31  96 SE16G23   29.52F WCI  21
6HR MIN TEMP:  30; 6HR MAX TEMP:  33; 6HR PCP:  0.09;

ALEXANDRIA     CLOUDY    27  22  81 W21G31    29.56S WCI  13
6HR MIN TEMP:  27; 6HR MAX TEMP:  38;

SAINT CLOUD    CLOUDY    34  28  79 SW16G25   29.61R WCI  24
6HR MIN TEMP:  34; 6HR MAX TEMP:  39;

MINNEAPOLIS    CLOUDY    39  31  72 SW16      29.67R
6HR MIN TEMP:  37; 6HR MAX TEMP:  40; 6HR PCP: TRACE;

$$

  *****  WEATHER ACROSS SOUTH DAKOTA  *****

CITY           SKY/WX    TMP DP  RH WIND       PRES   REMARKS
SIOUX FALLS    CLOUDY    23  15  71 W18G35    29.81R WCI   9
6HR MIN TEMP:  23; 6HR MAX TEMP:  37;

BROOKINGS      FLURRIES  20  14  77 W28G37    29.73R WCI   2
WATERTOWN      FLURRIES  18  12  77 W24G39    29.67S WCI   0
6HR MIN TEMP:  18; 6HR MAX TEMP:  32; 6HR PCP: TRACE;

HURON          PTCLDY    16   9  74 W23G29    29.84R WCI  -2
6HR MIN TEMP:  16; 6HR MAX TEMP:  30; 6HR PCP: TRACE;

SISSETON         N/A     20  12  71 W33G48    29.56F WCI   0
ABERDEEN       CLOUDY    17   8  67 W18G38    29.72S WCI   1
6HR MIN TEMP:  17; 6HR MAX TEMP:  32; 6HR PCP: TRACE;

MITCHELL       PTCLDY    19  11  70 NW26G32   29.88R WCI   1
PIERRE         MOCLDY    14   5  67 NW29G41   29.89R WCI  -7
6HR MIN TEMP:  14; 6HR MAX TEMP:  26; 6HR PCP: TRACE;

MOBRIDGE       CLEAR     13   4  67 NW26G40   29.76R BLWGSNOWWCI  -7
RAPID CITY     CLEAR     17   3  54 NW17      29.87F WCI   1
6HR MIN TEMP:  14; 6HR MAX TEMP:  21;

$$

  *****  SOME WEATHER IN NEARBY STATES *****

CITY           SKY/WX    TMP DP  RH WIND       PRES   REMARKS
GLASGOW MT     CLOUDY     7  -1  70 NW24      30.07R WCI -14
6HR MIN TEMP:   5; 6HR MAX TEMP:   8;

GREAT FALLS MT PTCLDY    -1  -4  87 SW5       30.09S WCI -11
6HR MIN TEMP:  -2; 6HR MAX TEMP:   9; 6HR PCP: TRACE;

CHEYENNE WY    CLEAR     11  -8  42 NW16      29.89R WCI  -6
6HR MIN TEMP:  11; 6HR MAX TEMP:  21;

SCOTTSBLUFF NE CLEAR     16   5  62 NW17      29.96R WCI   0
6HR MIN TEMP:  15; 6HR MAX TEMP:  23;

OMAHA NE       CLOUDY    34  27  75 N24G30    29.85R WCI  21
6HR MIN TEMP:  34; 6HR MAX TEMP:  46; 6HR PCP:  0.03;

DES MOINES IA  LGT RAIN  39  36  89 S12       29.79R
6HR MIN TEMP:  38; 6HR MAX TEMP:  44; 6HR PCP: TRACE;

DAVENPORT IA   CLOUDY    33  31  92 SE7       29.85F
6HR MIN TEMP:  32; 6HR MAX TEMP:  33;

CHICAGO IL     CLOUDY    34  32  92 SE9       29.90F FOG
6HR MIN TEMP:  31; 6HR MAX TEMP:  34;

EAU CLAIRE WI  LGT RAIN  35  30  82 S12       29.73F
6HR MIN TEMP:  35; 6HR MAX TEMP:  37; 6HR PCP:  0.01;

LA CROSSE WI   CLOUDY    36  31  82 S16       29.79F
6HR MIN TEMP:  36; 6HR MAX TEMP:  38;

$$

  *****  SOME NATIONAL WEATHER *****

CITY           SKY/WX    TMP DP  RH WIND       PRES   REMARKS
LA GUARDIA NY  MOCLDY    45  29  53 NW13      30.10S
6HR MIN TEMP:  45; 6HR MAX TEMP:  47;

RALEIGH NC     LGT RAIN  48  46  93 NE3       30.09R
6HR MIN TEMP:  48; 6HR MAX TEMP:  53; 6HR PCP:  0.05;

ATLANTA GA     LGT RAIN  52  52 100 E10       29.83F VSB 1/2
6HR MIN TEMP:  52; 6HR MAX TEMP:  53; 6HR PCP:  0.24;

NEW ORLEANS LA CLOUDY    64  64 100 S7        29.69S
6HR MIN TEMP:  63; 6HR MAX TEMP:  65; 6HR PCP:  0.79;

OKLAHOMA CITY  MOCLDY    42  40  92 NE3       29.73R
6HR MIN TEMP:  39; 6HR MAX TEMP:  45;

ALBUQUERQUE NM CLOUDY    34  16  47 SE3       29.91R
6HR MIN TEMP:  33; 6HR MAX TEMP:  52;

SALT LAKE CITY PTCLDY    28   7  41 CALM      29.99F
6HR MIN TEMP:  27; 6HR MAX TEMP:  30;

LOS ANGELES CA CLOUDY    58  54  86 E5        29.97R
6HR MIN TEMP:  56; 6HR MAX TEMP:  61;

BOISE ID       CLEAR     25  14  63 SE9       30.01S WCI  15
6HR MIN TEMP:  23; 6HR C1F1C2F2C3F3C4F4C5F5C6F6C7F7C8F8C9F9CaFaCbFbCcFcCd!


USA.gov is the U.S. government's official web portal to all federal, state and local government web resources and services.